JASON-3

Last updated on Mon Feb 10 2025 00:02:29 GMT+0000 (Coordinated Universal Time)

1 41240U 16002A 25040.58331671 -.00000022 00000+0 17022-3 0 9994 2 41240 66.0409 78.4881 0008102 271.7475 88.2612 12.80930130423900
UTC large
Height (km)
Speed (km/s)
/
Latitude / Longitude
Inclination (degrees)
Orbital Period (minutes)
Azimuth
Elevation
Range (km)
Doppler Factor

Next 0 passes for location: London (51.5072 / 0.1276)

Sorry there are no passes over London.